DateTimeUTC,F1_A11,F1_S11,BsB_S11,BsG_S11,BsR_S11,BbsB_S11,BbsG_S11,BbsR_S11,BaB_A11,BaG_A11,BaR_A11,Tu_S11,T_S11,Uu_S11,U_S11,P_S11,T1_A11
2021-06-11T04:00:00Z,00000200,20000000,,,,,,,-000.34,0000.02,-000.39,16.7,23.6,02.0,01.3,0662.0,31.0
2021-06-11T04:01:00Z,00000200,20000000,,,,,,,-000.03,-000.27,0000.23,16.7,23.6,02.0,01.3,0662.0,31.0
2021-06-11T04:02:00Z,00000200,20000000,,,,,,,-000.22,-000.10,-000.07,16.7,23.7,02.0,01.3,0662.0,30.9
2021-06-11T04:03:00Z,00000200,60000000,,,,,,,0000.14,0000.34,-000.08,16.7,23.7,02.0,01.3,0662.0,30.9
2021-06-11T04:04:00Z,00000200,40000000,0000.51,0000.62,0000.00,0000.26,-000.04,0000.22,-000.04,-000.11,-000.33,16.8,23.5,01.8,01.2,0662.9,30.9
2021-06-11T04:05:00Z,00000200,01000000,0000.66,0000.48,0000.15,0000.87,-000.08,-000.05,-000.18,0000.51,0000.49,16.9,23.4,01.9,01.3,0663.0,30.9
2021-06-11T04:06:00Z,00000200,01000000,0000.79,0000.62,-000.15,-000.12,0000.04,-000.02,0000.57,-000.20,-000.02,16.8,23.4,01.8,01.2,0663.0,30.9
2021-06-11T04:07:00Z,00000200,01000000,0001.21,0000.67,0000.20,0000.85,-000.14,-000.08,0000.18,-000.16,-000.01,16.8,23.4,01.8,01.2,0663.0,30.9
2021-06-11T04:08:00Z,00000200,01000000,0001.47,0000.72,0000.21,-000.24,0000.19,0000.02,0000.13,0000.59,0000.27,16.8,23.4,01.9,01.2,0663.0,30.9
2021-06-11T04:09:00Z,00000200,01000000,0001.02,0000.62,-000.22,0000.45,-000.00,-000.20,0000.23,0000.45,0000.31,16.8,23.4,01.8,01.2,0663.0,30.9
2021-06-11T04:10:00Z,00000200,01000000,0000.84,0000.56,0000.36,0000.41,0000.08,0000.17,0000.53,0000.01,0000.09,16.8,23.4,01.8,01.2,0663.0,30.9
2021-06-11T04:11:00Z,00000200,00000000,0000.79,0000.68,0000.42,-000.17,0000.12,0000.09,-000.16,0000.19,0000.17,16.8,23.4,01.9,01.3,0663.0,30.9
2021-06-11T04:12:00Z,00000200,00000000,0001.35,0000.28,0000.43,0000.46,0000.06,0000.18,0000.56,0000.46,0000.29,16.8,23.4,01.9,01.2,0663.0,30.9
2021-06-11T04:13:00Z,00000200,00000000,0001.16,0000.51,-000.05,0000.62,0000.09,-000.15,-000.00,-000.42,-000.46,16.8,23.3,01.9,01.2,0663.0,30.9
2021-06-11T04:14:00Z,00000200,01000000,0000.61,0000.52,0000.45,-000.05,0000.05,-000.01,0000.11,0000.12,0000.31,16.8,23.3,01.9,01.3,0663.0,30.9
2021-06-11T04:15:00Z,00000200,01000000,0001.08,0000.41,0000.56,0000.36,-000.09,0000.13,0000.14,0000.31,0000.05,16.8,23.3,01.8,01.2,0663.0,30.9
2021-06-11T04:16:00Z,00000200,01000000,0001.01,0000.67,0000.24,0000.56,0000.15,-000.11,0000.06,-000.01,-000.08,16.8,23.3,01.8,01.2,0663.0,30.9
2021-06-11T04:17:00Z,00000200,01000000,0001.34,0000.57,-000.10,0000.71,-000.13,0000.13,-000.02,-000.32,0000.08,16.8,23.3,01.8,01.2,0663.0,30.9
2021-06-11T04:18:00Z,00000200,01000000,0000.79,0000.28,0000.32,-000.03,-000.12,0000.08,-000.24,0000.20,0000.14,16.8,23.3,01.7,01.1,0663.0,30.9
2021-06-11T04:19:00Z,00000200,01000000,0001.51,0000.56,0000.26,0001.12,0000.07,0000.11,0000.72,0000.53,0000.20,16.7,23.3,01.7,01.1,0663.0,30.9
2021-06-11T04:20:00Z,00000200,01000000,0001.85,0000.60,0000.15,-000.53,0000.13,-000.12,-000.01,-000.26,0000.25,16.7,23.3,01.6,01.1,0663.1,30.9
2021-06-11T04:21:00Z,00000200,01000000,0001.37,0000.54,0000.47,0000.16,0000.04,0000.21,0000.42,0000.21,-000.15,16.7,23.3,01.5,01.0,0663.0,30.9
2021-06-11T04:22:00Z,00000200,01000000,0001.07,0000.85,0000.18,0000.21,0000.32,-000.04,-000.04,0000.31,0000.08,16.7,23.3,01.5,01.0,0663.0,30.9
2021-06-11T04:23:00Z,00000200,01000000,0000.95,0001.00,0000.10,0000.08,0000.06,0000.14,0000.18,-000.10,0000.52,16.7,23.3,01.6,01.1,0663.0,30.9
2021-06-11T04:24:00Z,00000200,01000000,0000.87,0000.77,0000.23,0000.41,-000.18,0000.05,-000.13,0000.35,-000.30,16.8,23.3,01.5,01.0,0663.0,30.9
2021-06-11T04:25:00Z,00000200,01000000,0000.51,0000.57,-000.00,0000.05,0000.03,0000.07,0000.05,-000.39,0000.31,16.8,23.3,01.3,00.9,0663.0,30.9
2021-06-11T04:26:00Z,00000200,01000000,0000.58,0000.79,0000.26,0000.18,-000.16,0000.41,-000.09,0000.04,-000.37,16.8,23.3,01.3,00.9,0663.0,30.9
2021-06-11T04:27:00Z,00000200,01000000,0001.06,0000.81,0000.30,0000.56,-000.02,0000.37,-000.16,-000.18,-000.40,16.8,23.3,01.3,00.8,0663.0,30.9
2021-06-11T04:28:00Z,00000200,01000000,0001.42,0000.63,0000.20,0000.36,-000.14,0000.16,0000.26,0000.00,0000.44,16.8,23.3,01.2,00.8,0663.0,30.9
2021-06-11T04:29:00Z,00000200,01000000,0001.40,0000.67,0000.39,0000.39,-000.09,0000.31,-000.05,0000.30,-000.11,16.8,23.3,01.2,00.8,0663.0,30.9
2021-06-11T04:30:00Z,00000200,01000000,0000.38,0000.78,0000.18,0000.24,-000.05,0000.24,0000.09,0000.13,-000.15,16.8,23.3,01.2,00.8,0663.0,30.9
2021-06-11T04:31:00Z,00000200,01000000,0000.97,0000.37,0000.13,0000.45,0000.01,-000.13,0000.03,-000.04,0000.28,16.8,23.3,01.1,00.7,0663.1,30.9
2021-06-11T04:32:00Z,00000200,01000000,0000.61,0000.62,0000.08,0000.51,0000.36,0000.13,0000.02,0000.41,-000.14,16.8,23.3,01.1,00.7,0663.1,30.9
2021-06-11T04:33:00Z,00000200,01000000,0001.12,0000.61,0000.16,0000.31,-000.10,-000.04,0000.75,0000.07,0000.72,16.8,23.3,01.0,00.7,0663.1,30.9
2021-06-11T04:34:00Z,00000200,01000000,0000.59,0000.57,0000.06,0000.29,-000.03,0000.22,-000.17,-000.06,-000.03,16.7,23.3,01.1,00.8,0663.1,30.9
2021-06-11T04:35:00Z,00000200,01000000,0001.36,0000.59,0000.22,0000.13,-000.01,-000.02,0000.21,-000.07,0000.01,16.7,23.3,01.0,00.7,0663.1,30.9
2021-06-11T04:36:00Z,00000200,01000000,0001.35,0000.41,0000.26,0000.52,-000.12,0000.09,0000.33,0000.57,0000.23,16.7,23.2,01.0,00.7,0663.1,30.9
2021-06-11T04:37:00Z,00000200,01000000,0001.52,0000.52,0000.46,0000.58,0000.16,-000.09,0000.26,0000.25,0000.22,16.7,23.2,01.1,00.7,0663.1,30.9
2021-06-11T04:38:00Z,00000200,01000000,0001.47,0000.63,0000.29,0000.32,0000.04,0000.09,-000.03,0000.21,0000.12,16.7,23.2,01.0,00.7,0663.1,30.9
2021-06-11T04:39:00Z,00000200,01000000,0000.90,0000.52,0000.06,0000.35,-000.08,-000.11,0000.07,0000.28,0000.30,16.7,23.2,01.0,00.7,0663.1,30.9
2021-06-11T04:40:00Z,00000200,01000000,0000.91,0000.50,0000.34,0000.53,0000.20,0000.17,0000.35,0000.09,0000.09,16.8,23.3,01.0,00.7,0663.2,30.9
2021-06-11T04:41:00Z,00000200,01000000,0000.54,0000.87,0000.43,-000.07,-000.05,0000.10,0000.34,0000.14,-000.00,16.8,23.3,01.0,00.7,0663.2,30.9
2021-06-11T04:42:00Z,00000200,01000000,0000.64,0000.68,0000.14,0000.68,-000.19,0000.30,0000.17,0000.29,0000.33,16.8,23.3,01.0,00.6,0663.1,30.9
2021-06-11T04:43:00Z,00000200,01000000,0000.55,0000.52,0000.08,0000.28,0000.16,-000.03,0000.13,0000.24,-000.10,16.9,23.3,01.0,00.7,0663.1,30.9
2021-06-11T04:44:00Z,00000200,01000000,0001.02,0000.38,0000.16,-000.00,-000.18,-000.07,0000.42,0000.22,0000.23,16.8,23.3,01.1,00.7,0663.1,30.9
2021-06-11T04:45:00Z,00000200,01000000,0000.52,0000.72,0000.29,0000.30,-000.09,-000.07,0000.15,0000.12,0000.29,16.8,23.3,01.1,00.7,0663.2,30.9
2021-06-11T04:46:00Z,00000200,01000000,0000.89,0000.72,-000.12,0000.46,0000.06,0000.06,0000.26,-000.05,-000.07,16.8,23.3,01.0,00.7,0663.2,30.9
2021-06-11T04:47:00Z,00000200,01000000,0000.97,0000.18,0000.15,0000.26,-000.14,-000.02,-000.13,0000.41,0000.12,16.8,23.3,01.2,00.8,0663.2,30.9
2021-06-11T04:48:00Z,00000200,01000000,0001.39,0000.66,0000.15,0000.35,0000.06,-000.03,0000.65,0000.32,0000.47,16.7,23.3,01.1,00.7,0663.2,30.9
2021-06-11T04:49:00Z,00000200,01000000,0001.12,0000.52,0000.17,-000.27,0000.07,0000.09,0000.16,0000.20,0000.03,16.7,23.3,01.2,00.8,0663.2,30.9
2021-06-11T04:50:00Z,00000200,01000000,0001.38,0000.50,0000.06,-000.12,0000.10,0000.26,0000.20,0000.13,0000.46,16.7,23.3,01.2,00.8,0663.2,30.9
2021-06-11T04:51:00Z,00000200,01000000,0000.53,0000.35,0000.04,0000.02,0000.10,0000.10,0000.24,0000.26,-000.00,16.7,23.2,01.3,00.8,0663.2,30.9
2021-06-11T04:52:00Z,00000200,01000000,0000.79,0000.39,0000.10,0000.23,-000.03,0000.00,0000.28,0000.34,-000.16,16.7,23.2,01.2,00.8,0663.2,30.9
2021-06-11T04:53:00Z,00000200,01000000,0001.32,0000.67,0000.22,0000.33,0000.09,0000.12,0000.28,-000.04,0000.38,16.6,23.2,01.2,00.8,0663.2,30.9
2021-06-11T04:54:00Z,00000200,01000000,0000.53,0000.63,0000.18,0000.01,0000.06,0000.24,0000.35,0000.39,0000.17,16.6,23.2,01.3,00.9,0663.2,30.9
2021-06-11T04:55:00Z,00000200,01000000,0000.55,0000.29,0000.09,0000.37,0000.24,0000.41,0000.46,0000.41,0000.29,16.6,23.2,01.3,00.9,0663.2,30.9
2021-06-11T04:56:00Z,00000200,01000000,0000.96,0000.46,0000.21,0000.43,0000.07,0000.06,0000.17,0000.35,0000.21,16.6,23.2,01.5,01.0,0663.2,30.9
2021-06-11T04:57:00Z,00000200,41000000,,,,,,,0000.31,0000.73,0000.72,16.6,23.2,01.5,01.0,0663.2,30.9
2021-06-11T04:58:00Z,00000200,60000000,,,,,,,0000.21,-000.63,-000.33,16.3,23.3,01.6,01.0,0662.2,30.9
2021-06-11T04:59:00Z,00000200,20000000,,,,,,,-000.44,0000.26,0000.02,16.3,23.4,01.6,01.0,0662.1,30.9
